Flag for Canada Weather past 2 weeks in Rouyn-Noranda, Quebec, Canada

Now
72 °F

Sprinkles. Overcast.


Feels Like: 72 °F
Forecast: 51 / 65 °F
Wind: 18 mph from West

Location: Rouyn Airport

Current Time: Jul 22, 2014 at 11:42:21 PM

Latest Report: Jul 22, 2014 at 11:00 PM


Visibility: 15 mi

Pressure: 29.67 "Hg

Humidity: 78%

Dew point: 64 °F

Location of Rouyn-NorandaLocation

Historic Weather in Rouyn-Noranda — Graph

°F

Rouyn-Noranda temperature yesterday

Maximum temperature yesterday: 77 °F (at 5:00 PM)
Minimum temperature yesterday: 61 °F (at 2:00 AM)
Average temperature yesterday: 69 °F

Past Weeks' High & Low Weather Summary

 TemperatureHumidityPressure
High79 °F (Jul 18, 5:00 PM)100% (Jul 9, 2:00 AM)30.20 "Hg (Jul 9, 2:00 AM)
Low46 °F (Jul 10, 5:00 AM)39% (Jul 19, 2:00 PM)29.45 "Hg (Jul 8, 8:00 PM)
Average62 °F77%29.90 "Hg
* Reported Jul 7 10:00 PM — Jul 22 10:00 PM, Rouyn-Noranda, Weather by CustomWeather, © 2014

Note: Actual official high and low records may vary slightly from our data, if they occured in-between our weather recording intervals... More about our weather records

Advertising

Rouyn-Noranda weather history for July 11, 2014

 ConditionsComfort  
Time TempWeatherWind HumidityBarometerVisibility
12:00 AM
Jul 11
55 °FClear.8 mph82%30.14 "Hg15 mi
1:00 AM55 °FClear.8 mph82%30.14 "Hg15 mi
2:00 AM54 °FClear.6 mph88%30.15 "Hg15 mi
3:00 AM54 °FClear.6 mph88%30.16 "Hg15 mi
4:00 AM52 °FPassing clouds.5 mph88%30.16 "Hg15 mi
5:00 AM50 °FPassing clouds.5 mph94%30.16 "Hg15 mi
6:00 AM50 °FPassing clouds.2 mph88%30.17 "Hg15 mi
7:00 AM55 °FScattered clouds.6 mph82%30.18 "Hg15 mi
8:00 AM59 °FPassing clouds.8 mph77%30.19 "Hg15 mi
9:00 AM63 °FPassing clouds.7 mph73%30.20 "Hg15 mi
10:00 AM66 °FPassing clouds.9 mph60%30.19 "Hg15 mi
11:00 AM68 °FPassing clouds.13 mph60%30.19 "Hg15 mi
12:00 PM70 °FScattered clouds.12 mph53%30.18 "Hg15 mi
1:00 PM72 °FPartly sunny.9 mph47%30.16 "Hg15 mi
2:00 PM73 °FPartly sunny.10 mph44%30.15 "Hg15 mi
3:00 PM73 °FPartly sunny.13 mph47%30.12 "Hg15 mi
4:00 PM75 °FPartly sunny.10 mph47%30.11 "Hg15 mi
5:00 PM75 °FBroken clouds.9 mph41%30.10 "Hg15 mi
6:00 PM75 °FPartly sunny.16 mph44%30.09 "Hg15 mi
7:00 PM75 °FPartly sunny.9 mph44%30.08 "Hg15 mi
8:00 PM72 °FPartly sunny.9 mph50%30.09 "Hg15 mi
9:00 PM68 °FPartly sunny.9 mph56%30.09 "Hg15 mi
10:00 PM66 °FPartly sunny.9 mph60%30.08 "Hg15 mi
11:00 PM66 °FPassing clouds.12 mph60%30.08 "Hg15 mi
Weather by CustomWeather, © 2014

See weather overviewHow to use our weather pages